Regional Weather Roundup
Issued by NWS

Home | Current Version | Previous Version | Text Only | Print | Product List | Glossary Off
Versions: 1 2 3 4 5 6 7 8 9 10 11 12 13 14 15 16 17 18 19 20 21 22 23 24 25 26 27 28 29 30 31 32 33 34 35 36 37 38 39 40 41 42 43 44 45 46 47 48 49 50

000
ASUS43 KOAX 060410
RWRNE

WEATHER ROUNDUP FOR NEBRASKA
NATIONAL WEATHER SERVICE OMAHA NE
1100 PM CDT SUN JUL 05 2015

NOTES: SATELLITE DATA IS BEING USED TO AUGMENT CLOUD COVER ABOVE
       12000 FEET.
       "FAIR" INDICATES FEW OR NO CLOUDS BELOW 12,000 FEET WITH NO
       SIGNIFICANT WEATHER AND/OR OBSTRUCTIONS TO VISIBILITY.

  * THESE STATIONS DO NOT REPORT WEATHER SUCH AS RAIN...SNOW OR FOG.

NEZ001>004-019>022-054>056-060500-
NEBRASKA PANHANDLE

CITY           SKY/WX    TMP DP  RH WIND       PRES   REMARKS
SCOTTSBLUFF    CLOUDY    66  66 100 N15G23    30.01R
ALLIANCE       LGT RAIN  63  62  97 NE14      29.98R
CHADRON        LGT RAIN  63  60  90 N17G31    30.02R
KIMBALL          N/A    N/A N/A N/A MISG        N/A
SIDNEY         CLOUDY    65  63  93 N12       30.00S
$$

NEZ057>060-069>072-079>082-060500-
SOUTHWEST NEBRASKA

CITY           SKY/WX    TMP DP  RH WIND       PRES   REMARKS
NORTH PLATTE   LGT RAIN  74  66  76 NE7       29.84R
IMPERIAL       CLOUDY    72  63  73 N25G36    29.86R
LEXINGTON      CLOUDY    84  57  38 SW24G35   29.75R THUNDER
MCCOOK         CLOUDY    77  63  61 NE9       29.80S
OGALLALA       CLOUDY    70  65  82 NW23G29   29.92R
$$

NEZ005>010-023>029-035>040-094-060500-
NORTH CENTRAL NEBRASKA

CITY           SKY/WX    TMP DP  RH WIND       PRES   REMARKS
VALENTINE      TSTM      67  64  90 N28G38    29.86R
AINSWORTH      CLOUDY    67  67 100 N21G30    29.80F
BROKEN BOW     CLOUDY    81  63  54 W18G33    29.80R
O`NEILL        CLOUDY    82  76  81 E10       29.70F
ORD            CLOUDY    83  67  58 S7        29.71S
THEDFORD       TSTM      68  67  96 NW21G30   29.89F
$$

NEZ041-046>049-061>064-073>077-083>087-060500-
SOUTH CENTRAL NEBRASKA

CITY           SKY/WX    TMP DP  RH WIND       PRES   REMARKS
GRAND ISLAND   CLOUDY    83  63  50 S13       29.77R
AURORA         CLOUDY    82  65  57 S12       29.77S
HASTINGS       CLOUDY    85  62  46 MISG      29.77R
HEBRON         MOCLDY    85  62  46 S10       29.79S
HOLDREGE       CLOUDY    84  58  40 S14       29.80R
KEARNEY *      CLOUDY    82  61  47 SE14      29.77R
YORK           CLOUDY    81  73  78 S13       29.76F
$$

NEZ011>018-030>034-042>045-060500-
NORTHEAST NEBRASKA

CITY           SKY/WX    TMP DP  RH WIND       PRES   REMARKS
NORFOLK        CLOUDY    81  73  76 SE13      29.74F
ALBION         CLOUDY    81  71  69 SE9G16    29.73F
BLAIR          CLOUDY    81  73  75 SE16G23   29.80F
COLUMBUS *     CLOUDY    82  70  65 SE12      29.74F
FREMONT        CLOUDY    81  65  57 SE16G23   29.78S
TEKAMAH        CLOUDY    83  74  74 SE22      29.77R
WAYNE          CLOUDY    80  73  78 SE14G20   29.75F
$$

NEZ050>053-065>068-078-088>093-060500-
SOUTHEAST NEBRASKA

CITY           SKY/WX    TMP DP  RH WIND       PRES   REMARKS
LINCOLN        CLOUDY    84  71  65 SE17      29.80R
OMAHA EPPLEY   TSTM      83  75  77 SW8       29.83R HX  90
BEATRICE       CLOUDY    84  71  65 S13       29.80S
FALLS CITY     MOCLDY    82  75  79 SE14      29.83R
NEBRASKA CITY  CLOUDY    82  72  72 S14       29.83R
PLATTSMOUTH    LGT RAIN  80  72  76 S6        29.84R
$$

NEZ044-045-051>053-067-060500-
OMAHA AREA

CITY           SKY/WX    TMP DP  RH WIND       PRES   REMARKS
OMAHA EPPLEY   TSTM      83  75  77 SW8       29.83R HX  90
BLAIR          CLOUDY    81  73  75 SE16G23   29.80F
FREMONT        CLOUDY    81  65  57 SE16G23   29.78S
MILLARD        CLOUDY    78  69  73 SE12G22   29.82R
OFFUTT AFB     MOCLDY    82  75  78 VRB6      29.82R THUNDER
PLATTSMOUTH    LGT RAIN  80  72  76 S6        29.84R
WAHOO          FAIR      81  62  53 SE20G28   29.78S
$$


USA.gov is the U.S. government's official web portal to all federal, state and local government web resources and services.